Location: Maccacari
(45.1333°N, 11.1333°E)
Time: 22:52:37
(UTC+00:00)

Exosat Rocket - Pass Details

Date: 18 September 2020
Orbit: 761 x 2514 km, 72.3° (Epoch: 25 October)

Event Time Altitude Azimuth Distance (km) Brightness Sun altitude
Rises 18:57:33 0° 183° (S) 3,793 6.9 -17.6°
Reaches altitude 10° 19:00:28 10° 177° (S) 2,655 6.0 -18.1°
Maximum altitude 19:05:53 43° 107° (ESE) 1,138 3.9 -19.0°
Drops below altitude 10° 19:10:36 10° 37° (NE) 2,305 5.8 -19.8°
Sets 19:12:58 0° 31° (NNE) 3,237 6.7 -20.1°
